This is the latest recevied weather packets stored in our database for station/object WA9SDJ-13. If no packets are shown the sender has not sent any weather packets the latest 1 day(s).
| Time | Temp. | Humidity | Pressure | Rain* | Wind** | Luminosity | Snow |
|---|---|---|---|---|---|---|---|
| 1778081518 | 12.22° C | 79% | 1013.3 hPa | 0 mm | - | 236 W/m² | - |
| 1778081458 | 12.22° C | 79% | 1013.3 hPa | 0 mm | - | 250 W/m² | - |
| 1778081217 | 11.67° C | 81% | 1013.3 hPa | 0 mm | - | 274 W/m² | - |
| 1778081096 | 11.67° C | 79% | 1013.3 hPa | 0 mm | - | 169 W/m² | - |
| 1778080255 | 11.67° C | 81% | 1013.1 hPa | 0 mm | - | 179 W/m² | - |
| 1778080196 | 11.67° C | 82% | 1013.2 hPa | 0 mm | - | 172 W/m² | - |
| 1778080136 | 11.67° C | 82% | 1013.3 hPa | 0 mm | - | 160 W/m² | - |
| 1778079895 | 11.67° C | 83% | 1013.4 hPa | 0 mm | - | 142 W/m² | - |
| 1778079835 | 12.22° C | 83% | 1013.3 hPa | 0 mm | - | 139 W/m² | - |
| 1778079775 | 12.22° C | 83% | 1013.3 hPa | 0 mm | - | 135 W/m² | - |
| 1778079716 | 12.22° C | 83% | 1013.3 hPa | 0 mm | - | 128 W/m² | - |
| 1778079656 | 12.22° C | 82% | 1013.4 hPa | 0 mm | - | 118 W/m² | - |
| 1778079535 | 12.22° C | 82% | 1013.3 hPa | 0 mm | - | 125 W/m² | - |
| 1778079355 | 11.67° C | 82% | 1013.3 hPa | 0 mm | - | 132 W/m² | - |
| 1778079235 | 11.67° C | 80% | 1013.1 hPa | 0 mm | - | 157 W/m² | - |
| 1778079175 | 11.67° C | 80% | 1013.1 hPa | 0 mm | - | 153 W/m² | - |
| 1778079115 | 11.67° C | 81% | 1013.1 hPa | 0 mm | - | 153 W/m² | - |
| 1778079055 | 11.67° C | 81% | 1013.1 hPa | 0 mm | - | 165 W/m² | - |
| 1778078995 | 11.67° C | 81% | 1013.1 hPa | 0 mm | - | 185 W/m² | - |
| 1778078935 | 11.67° C | 82% | 1013 hPa | 0 mm | - | 171 W/m² | - |
| 1778078876 | 11.67° C | 82% | 1013.1 hPa | 0 mm | - | 157 W/m² | - |
| 1778078635 | 11.67° C | 81% | 1013 hPa | 0 mm | - | 167 W/m² | - |
| 1778078515 | 11.67° C | 82% | 1013.1 hPa | 0 mm | - | 167 W/m² | - |
| 1778077554 | 11.67° C | 83% | 1012.9 hPa | 0 mm | - | 318 W/m² | - |
| 1778077495 | 11.67° C | 83% | 1012.9 hPa | 0 mm | - | 297 W/m² | - |
* Rain latest hour (hover to see other rain measurements)
** Current wind speed in m/s (hover to see current wind gust speed)